Abilene, TX

9:18 AM CDT on October 22, 2017 (GMT -0500)
Abilene Regional

Weather History for KABI - June, 2014

Change the Weather History Date:

Friday, June 13, 2014

  Actual Average Record
Temperature  
Mean Temperature 79 °F 79 °F  
Max Temperature 88 °F 90 °F 105 °F (2011)
Min Temperature 69 °F 68 °F 53 °F (1903)
Degree Days  
Heating Degree Days 0 0  
Month to date heating degree days 0 0  
Since 1 June heating degree days 0 0  
Since 1 July heating degree days 2821 2558  
Cooling Degree Days 14 14  
Month to date cooling degree days 194 170  
Year to date cooling degree days 708 567  
Since 1 June cooling degree days 194 170  
Growing Degree Days 28 (Base 50)    
Moisture  
Dew Point 67 °F    
Average Humidity 70    
Maximum Humidity 90    
Minimum Humidity 50    
Precipitation  
Precipitation 0.00 in 0.13 in 1.56 in (2003)
Month to date precipitation 2.66 1.80  
Year to date precipitation 6.65 10.74  
Sea Level Pressure  
Sea Level Pressure 29.95 in    
Wind  
Wind Speed 9 mph (SE)    
Max Wind Speed 21 mph    
Max Gust Speed 24 mph    
Visibility 10 miles    
Events      
T = Trace of Precipitation, MM = Missing Value Source: NWS Daily Summary

Daily Weather History Graph

Daily Weather History Graph

Search for Another Location

Airport or City:

Trip Planner

Search our weather history database for the weather conditions in past years. The results will help you decide how hot, cold, wet, or windy it might be!

Date:

Astronomy

Jun. 13, 2014 Rise Set
Actual Time 6:31 AM CDT 8:46 PM CDT
Civil Twilight 6:02 AM CDT 9:15 PM CDT
Nautical Twilight 5:27 AM CDT 9:49 PM CDT
Astronomical Twilight 4:50 AM CDT 10:27 PM CDT
Moon 9:23 PM CDT (6/13) 7:07 AM CDT (6/13)
Length of Visible Light 15h 12m
Length of Day
14h 15m
Full, 100% of the Moon is Illuminated
Jun 13
Full
Jun 19
Last Quarter
Jun 27
New
Jul 5
First Quarter
Jul 12
Full

Hourly Weather History & Observations

Time (CDT) Temp. Heat Index Dew Point Humidity Pressure Visibility Wind Dir Wind Speed Gust Speed Precip Events Conditions
12:52 AM 73.9 °F - 66.9 °F 79% 29.95 in 10.0 mi North - - N/A   Mostly Cloudy
1:52 AM 73.0 °F - 68.0 °F 84% 29.96 in 10.0 mi North - - N/A   Overcast
2:52 AM 73.0 °F - 66.9 °F 81% 29.95 in 10.0 mi North - - N/A   Mostly Cloudy
3:52 AM 71.1 °F - 66.9 °F 87% 29.96 in 10.0 mi North - - N/A   Clear
4:52 AM 71.1 °F - 66.9 °F 87% 29.97 in 10.0 mi North - - N/A   Partly Cloudy
5:52 AM 71.1 °F - 66.9 °F 87% 29.96 in 10.0 mi North - - N/A   Clear
6:52 AM 70.0 °F - 66.0 °F 87% 29.99 in 10.0 mi Calm Calm - N/A   Clear
7:52 AM 72.0 °F - 66.9 °F 84% 30.00 in 10.0 mi North - - N/A   Clear
8:52 AM 73.9 °F - 68.0 °F 82% 30.00 in 10.0 mi North - - N/A   Partly Cloudy
9:15 AM 73.9 °F - 66.9 °F 79% 30.07 in 10.0 mi Calm Calm - N/A   Mostly Cloudy
9:28 AM 75.0 °F - 68.0 °F 79% 30.07 in 10.0 mi Calm Calm - N/A   Overcast
9:52 AM 75.9 °F - 68.0 °F 76% 30.00 in 10.0 mi Calm Calm - N/A   Overcast
10:52 AM 77.0 °F - 68.0 °F 74% 29.99 in 10.0 mi North - - N/A   Mostly Cloudy
11:16 AM 79.0 °F - 68.0 °F 69% 30.06 in 10.0 mi North - - N/A   Scattered Clouds
11:33 AM 80.1 °F 82.3 °F 66.9 °F 64% 30.06 in 10.0 mi North - - N/A   Mostly Cloudy
11:52 AM 79.0 °F - 66.9 °F 66% 29.98 in 10.0 mi North - - N/A   Mostly Cloudy
12:16 PM 81.0 °F 83.3 °F 66.9 °F 62% 30.05 in 10.0 mi Variable 3.5 mph - N/A   Mostly Cloudy
12:52 PM 82.0 °F 84.5 °F 66.9 °F 60% 29.96 in 10.0 mi Variable 5.8 mph - N/A   Overcast
1:52 PM 84.0 °F 86.5 °F 66.9 °F 56% 29.94 in 10.0 mi Calm Calm - N/A   Mostly Cloudy
2:52 PM 84.0 °F 86.5 °F 66.9 °F 56% 29.92 in 10.0 mi ENE 6.9 mph - N/A   Mostly Cloudy
4:52 PM 87.1 °F 89.9 °F 66.9 °F 51% 29.88 in 10.0 mi ESE 11.5 mph - N/A   Scattered Clouds
6:52 PM 86.0 °F 88.8 °F 66.9 °F 53% 29.84 in 10.0 mi SE 17.3 mph - N/A   Clear
7:52 PM 82.9 °F 85.4 °F 66.9 °F 58% 29.83 in 10.0 mi SE 16.1 mph - N/A   Clear
8:52 PM 80.1 °F 82.7 °F 68.0 °F 67% 29.84 in 10.0 mi SE 10.4 mph - N/A   Clear
9:52 PM 78.1 °F - 68.0 °F 71% 29.85 in 10.0 mi SE 11.5 mph - N/A   Clear
10:52 PM 77.0 °F - 68.0 °F 74% 29.87 in 10.0 mi SE 11.5 mph - N/A   Clear
11:52 PM 77.0 °F - 68.0 °F 74% 29.88 in 10.0 mi SSE 11.5 mph - N/A   Clear